Location: Invercargill
(46.4000°S, 168.3500°E)
Time: 19:47:07
(UTC+12:00)

H-2A R/B - Pass Details

Date: 14 May 2021
Orbit: 577 x 655 km, 98.5° (Epoch: 14 June)

Event Time Altitude Azimuth Distance (km) Brightness Sun altitude
Rises 18:01:57 0° 6° (N) 2,820 5.6 -6.6°
Reaches altitude 10° 18:04:08 10° 2° (N) 1,919 4.8 -7.0°
Maximum altitude 18:08:14 59° 282° (WNW) 684 2.7 -7.7°
Drops below altitude 10° 18:12:21 10° 201° (SSW) 1,930 4.6 -8.3°
Sets 18:14:34 0° 197° (SSW) 2,837 5.5 -8.7°
